, AK

(GMT )
Deadhorse

Weather History for PASC - July, 2013

Change the Weather History Date:

Sunday, July 21, 2013

  Actual Average Record
Temperature  
Mean Temperature 52 °F -  
Max Temperature 64 °F 54 °F 75 °F (2003)
Min Temperature 41 °F 38 °F 30 °F (1988)
Degree Days  
Heating Degree Days 12    
Growing Degree Days 2 (Base 50)    
Moisture  
Dew Point 43 °F    
Average Humidity 86    
Maximum Humidity 100    
Minimum Humidity 40    
Precipitation  
Precipitation 0.00 in - - ()
Sea Level Pressure  
Sea Level Pressure 30.10 in    
Wind  
Wind Speed 7 mph (East)    
Max Wind Speed 15 mph    
Max Gust Speed -    
Visibility 4 miles    
Events Fog    
Averages and records for this station are not official NWS values.
T = Trace of Precipitation, MM = Missing Value Source: NWS Daily Summary

Daily Weather History Graph

Daily Weather History Graph

Search for Another Location

Airport or City:

Trip Planner

Search our weather history database for the weather conditions in past years. The results will help you decide how hot, cold, wet, or windy it might be!

Date:

Astronomy

Jul. 21, 2013 Rise Set
Actual Time 2:32 AM AKDT 1:27 AM AKDT
Civil Twilight Sun does not set Sun does not set
Nautical Twilight Sun does not set Sun does not set
Astronomical Twilight Sun does not set Sun does not set
Moon 11:21 PM AKDT (7/21) 1:40 AM AKDT (7/21)
Length of Visible Light 24h 00m
Length of Day
22h 55m
Waxing Gibbous, 99% of the Moon is Illuminated
Jul 21
Waxing Gibbous
Jul 22
Full
Jul 29
Last Quarter
Aug 6
New
Aug 14
First Quarter

Hourly Weather History & Observations

Time (AKDT) Temp. Windchill Dew Point Humidity Pressure Visibility Wind Dir Wind Speed Gust Speed Precip Events Conditions
12:28 AM 42.8 °F 38.0 °F 41.0 °F 93% 30.10 in 9.0 mi East 8.1 mph - N/A   Overcast
12:34 AM 42.8 °F 38.6 °F 41.0 °F 93% 30.10 in 1.8 mi East 6.9 mph - N/A   Overcast
12:53 AM 42.1 °F 37.1 °F 41.0 °F 96% 30.11 in 0.2 mi East 8.1 mph - N/A Fog Fog
1:08 AM 42.8 °F 38.0 °F 42.8 °F 100% 30.10 in 0.2 mi East 8.1 mph - N/A Fog Fog
1:53 AM 42.1 °F 36.6 °F 42.1 °F 100% 30.10 in 0.2 mi East 9.2 mph - N/A Fog Fog
2:40 AM 42.8 °F 38.6 °F 42.8 °F 100% 30.10 in 0.2 mi East 6.9 mph - N/A Fog Fog
2:53 AM 42.1 °F 37.7 °F 42.1 °F 100% 30.11 in 0.2 mi East 6.9 mph - N/A Fog Fog
3:02 AM 42.8 °F 39.3 °F 42.8 °F 100% 30.10 in 1.0 mi East 5.8 mph - N/A   Mostly Cloudy
3:12 AM 42.8 °F 39.3 °F 41.0 °F 93% 30.10 in 1.0 mi East 5.8 mph - N/A   Mostly Cloudy
3:44 AM 41.0 °F 39.0 °F 41.0 °F 100% 30.11 in 1.0 mi ENE 3.5 mph - N/A   Mostly Cloudy
3:53 AM 42.1 °F 39.2 °F 41.0 °F 96% 30.12 in 1.0 mi NNE 4.6 mph - N/A   Mostly Cloudy
4:14 AM 42.8 °F 39.3 °F 41.0 °F 93% 30.11 in 0.5 mi ENE 5.8 mph - N/A Fog Fog
4:21 AM 42.8 °F 39.3 °F 42.8 °F 100% 30.10 in 0.2 mi ENE 5.8 mph - N/A Fog Fog
4:25 AM 42.8 °F 40.1 °F 42.8 °F 100% 30.10 in 0.2 mi East 4.6 mph - N/A Fog Fog
4:27 AM 42.8 °F 39.3 °F 42.8 °F 100% 30.10 in 0.2 mi ENE 5.8 mph - N/A Fog Fog
4:43 AM 42.8 °F 40.1 °F 42.8 °F 100% 30.10 in 0.2 mi East 4.6 mph - N/A Fog Fog
4:53 AM 42.1 °F 37.7 °F 41.0 °F 96% 30.11 in 0.2 mi East 6.9 mph - N/A Fog Fog
5:27 AM 42.8 °F 40.1 °F 42.8 °F 100% 30.11 in 0.2 mi East 4.6 mph - N/A Fog Fog
5:37 AM 42.8 °F 38.0 °F 42.8 °F 100% 30.11 in 0.2 mi East 8.1 mph - N/A Fog Fog
5:45 AM 42.8 °F 38.6 °F 42.8 °F 100% 30.11 in 0.5 mi ENE 6.9 mph - N/A Fog Fog
5:53 AM 43.0 °F 39.5 °F 42.1 °F 97% 30.12 in 0.2 mi East 5.8 mph - N/A Fog Fog
6:23 AM 42.8 °F 38.6 °F 42.8 °F 100% 30.11 in 0.2 mi East 6.9 mph - N/A Fog Fog
6:53 AM 43.0 °F 38.8 °F 43.0 °F 100% 30.11 in 0.5 mi East 6.9 mph - N/A Fog Fog
7:27 AM 44.6 °F 41.4 °F 44.6 °F 100% 30.11 in 0.5 mi East 5.8 mph - N/A Fog Fog
7:35 AM 44.6 °F 41.4 °F 44.6 °F 100% 30.11 in 0.2 mi East 5.8 mph - N/A Fog Fog
7:53 AM 44.1 °F 39.5 °F 43.0 °F 96% 30.11 in 0.2 mi East 8.1 mph - N/A Fog Fog
8:53 AM 45.0 °F 41.8 °F 45.0 °F 100% 30.12 in 0.2 mi East 5.8 mph - N/A Fog Fog
9:00 AM 44.6 °F 40.7 °F 44.6 °F 100% 30.11 in 1.0 mi East 6.9 mph - N/A   Overcast
9:17 AM 46.4 °F 42.9 °F 44.6 °F 93% 30.11 in 2.0 mi East 6.9 mph - N/A   Mostly Cloudy
9:30 AM 46.4 °F 42.4 °F 44.6 °F 93% 30.11 in 4.0 mi ESE 8.1 mph - N/A   Scattered Clouds
9:53 AM 51.1 °F - 46.0 °F 83% 30.11 in 10.0 mi East 8.1 mph - N/A   Clear
10:53 AM 55.0 °F - 46.9 °F 74% 30.11 in 10.0 mi East 8.1 mph - N/A   Clear
11:53 AM 59.0 °F - 46.9 °F 64% 30.11 in 10.0 mi East 6.9 mph - N/A   Clear
12:53 PM 61.0 °F - 45.0 °F 56% 30.10 in 10.0 mi East 8.1 mph - N/A   Clear
1:53 PM 64.0 °F - 44.1 °F 48% 30.09 in 10.0 mi East 9.2 mph - N/A   Clear
2:53 PM 64.9 °F - 45.0 °F 48% 30.09 in 10.0 mi ENE 10.4 mph - N/A   Clear
3:53 PM 64.0 °F - 41.0 °F 43% 30.08 in 10.0 mi ENE 12.7 mph - N/A   Clear
4:53 PM 63.0 °F - 37.9 °F 40% 30.07 in 10.0 mi East 15.0 mph - N/A   Clear
5:53 PM 64.0 °F - 41.0 °F 43% 30.07 in 10.0 mi East 12.7 mph - N/A   Clear
6:53 PM 63.0 °F - 39.9 °F 43% 30.06 in 10.0 mi East 10.4 mph - N/A   Clear
7:53 PM 61.0 °F - 46.9 °F 60% 30.06 in 10.0 mi East 10.4 mph - N/A   Clear
8:53 PM 57.9 °F - 48.0 °F 70% 30.06 in 10.0 mi East 8.1 mph - N/A   Clear
9:53 PM 55.9 °F - 48.0 °F 75% 30.05 in 10.0 mi East 8.1 mph - N/A   Mostly Cloudy
10:53 PM 55.0 °F - 48.9 °F 80% 30.04 in 10.0 mi East 8.1 mph - N/A   Mostly Cloudy
11:53 PM 51.1 °F - 48.0 °F 89% 30.04 in 10.0 mi East 5.8 mph - N/A   Mostly Cloudy